This demonstration page uses our WeatherBlox Daily Observations layout. Learn more.

Left ArrowRight Arrow

38.20091, -84.87328

Hourly Observations for April 14, 2022

Temp ( °F °C ) Dew Point ( °F °C ) Humidity (%) Winds ( mph kmh ) Pressure ( in mb ) Visibility ( mi km ) Precip ( " mm )
12:34 am 00:34 Mostly Cloudy 61 16.1 58 14.4 90 90 S 15 24 29.70 1006 10 16 0.03 0.76
12:53 am 00:53 Mostly Clear 62 16.7 58 14.4 86 86 S 12 19 29.69 1005 10 16 0.03 0.76
1:53 am 01:53 Cloudy 62 16.7 58 14.4 86 86 S 15 24 29.72 1007 10 16 0.00 0.00
2:18 am 02:18 Cloudy 62 16.7 58 14.4 86 86 S 16 26 29.73 1007 9 14 0.00 0.00
2:28 am 02:28 Cloudy with Light Rain 62 16.7 57 13.9 84 84 S 16 26 29.73 1007 9 14 0.00 0.00
2:53 am 02:53 Cloudy 62 16.7 58 14.4 86 86 S 13 20 29.72 1006 10 16 0.00 0.00
3:31 am 03:31 Cloudy with Rain 58 14.4 55 12.8 90 90 WNW 15 24 29.76 1008 3 5 0.02 0.51
3:35 am 03:35 Cloudy with Light Rain 56 13.3 52 11.1 87 87 WNW 17 28 29.77 1008 3 4 0.03 0.76
3:38 am 03:38 Cloudy with Light Rain 56 13.3 52 11.1 87 87 W 16 26 29.77 1008 3 5 0.03 0.76
3:53 am 03:53 Cloudy 54 12.2 51 10.6 90 90 W 14 22 29.78 1008 7 11 0.03 0.76
4:03 am 04:03 Cloudy with Light Rain 53 11.7 50 10 89 89 W 14 22 29.79 1009 4 6 0.00 0.00
4:31 am 04:31 Cloudy with Light Rain 50 10 47 8.3 89 89 WNW 14 22 29.83 1010 4 6 0.01 0.25
4:53 am 04:53 Cloudy 49 9.4 45 7.2 86 86 WNW 13 20 29.82 1010 10 16 0.01 0.25
5:04 am 05:04 Cloudy 49 9.4 45 7.2 86 86 WNW 15 24 29.86 1011 10 16 0.00 0.00
5:13 am 05:13 Cloudy 48 8.9 44 6.7 86 86 WNW 12 19 29.86 1011 10 16 0.00 0.00
5:16 am 05:16 Cloudy 48 8.9 44 6.7 86 86 WNW 14 22 29.87 1012 10 16 0.00 0.00
5:23 am 05:23 Cloudy 48 8.9 44 6.7 86 86 WNW 10 17 29.88 1012 10 16 0.00 0.00
5:37 am 05:37 Cloudy 48 8.9 44 6.7 86 86 WNW 12 19 29.89 1012 10 16 0.00 0.00
5:53 am 05:53 Cloudy 48 8.9 43 6.1 83 83 WNW 9 15 29.88 1012 10 16 0.00 0.00
6:03 am 06:03 Cloudy 47 8.3 43 6.1 86 86 WNW 16 26 29.92 1013 10 16 0.00 0.00
6:51 am 06:51 Cloudy 46 8 41 5 82 82 WNW 14 22 29.96 1014 10 16 0.00 0.00
6:53 am 06:53 Cloudy 47 8.3 41 5 80 80 WNW 15 24 29.93 1014 10 16 0.00 0.00
7:53 am 07:53 Cloudy 46 7.8 39 3.9 77 77 WNW 12 19 29.99 1016 10 16 0.00 0.00
8:12 am 08:12 Partly Cloudy 45 7.2 37 2.8 74 74 NW 9 15 30.03 1017 10 16 0.00 0.00
8:53 am 08:53 Partly Cloudy 46 7.8 37 2.8 71 71 NW 12 19 30.04 1017 10 16 0.00 0.00
9:06 am 09:06 Mostly Cloudy 45 7.2 36 2.2 71 71 W 7 11 30.07 1018 10 16 0.00 0.00
9:13 am 09:13 Partly Cloudy 45 7.2 37 2.8 74 74 W 9 15 30.08 1019 10 16 0.00 0.00
9:53 am 09:53 Sunny 47 8.3 35 1.7 63 63 NW 7 11 30.06 1018 10 16 0.00 0.00
10:53 am 10:53 Sunny 50 10 33 0.6 52 52 VRB 6 9 30.08 1019 10 16 0.00 0.00
11:53 am 11:53 Sunny 52 11.1 32 0 47 47 SW 3 6 30.07 1018 10 16 0.00 0.00
12:53 pm 12:53 Sunny 55 12.8 28 -2.2 35 35 Calm 30.07 1018 10 16 0.00 0.00
1:53 pm 13:53 Sunny 58 14.4 27 -2.8 31 31 WSW 9 15 30.06 1018 10 16 0.00 0.00
2:53 pm 14:53 Sunny 60 15.6 26 -3.3 27 27 VRB 6 9 30.06 1018 10 16 0.00 0.00
3:53 pm 15:53 Sunny 62 16.7 26 -3.3 25 25 WNW 13 20 30.06 1018 10 16 0.00 0.00
4:53 pm 16:53 Sunny 63 17.2 21 -6.1 20 20 W 17 28 30.06 1018 10 16 0.00 0.00
5:53 pm 17:53 Sunny 62 16.7 27 -2.8 26 26 SW 13 20 30.07 1018 10 16 0.00 0.00
6:53 pm 18:53 Sunny 62 16.7 24 -4.4 23 23 W 9 15 30.06 1018 10 16 0.00 0.00
7:53 pm 19:53 Sunny 59 15 18 -7.8 20 20 WSW 6 9 30.06 1018 10 16 0.00 0.00
8:53 pm 20:53 Clear 56 13.3 20 -6.7 24 24 W 5 7 30.09 1019 10 16 0.00 0.00
9:53 pm 21:53 Clear 52 11.1 23 -5 32 32 SSW 3 6 30.10 1019 10 16 0.00 0.00
10:53 pm 22:53 Clear 45 7.2 28 -2.2 52 52 S 3 6 30.11 1020 10 16 0.00 0.00
11:53 pm 23:53 Clear 45 7.2 27 -2.8 49 49 SW 5 7 30.11 1020 10 16 0.00 0.00

Powered by AerisWeather